Location: Le Castellard
(44.1862°N, 6.1301°E)
Time: 20:31:48
(UTC+00:00)

USA 215 - Pass Details

Date: 18 January 2020
Orbit: 1101 x 1107 km, 123.0° (Epoch: 06 February)

Event Time Altitude Azimuth Distance (km) Brightness Sun altitude
Rises 03:54:47 0° 120° (ESE) 3,914 6.9 -33.9°
Reaches altitude 10° 03:57:16 10° 119° (ESE) 2,957 6.1 -33.5°
Maximum altitude 04:03:46 75° 36° (NE) 1,141 3.2 -32.3°
Enters shadow 04:03:58 74° 18° (NNE) 1,144 3.2 -32.3°
